Fort Knox, KY

5:25 AM EDT on August 24, 2017 (GMT -0400)
Godman Army Air Field

Weather History for KFTK - July, 2013

Change the Weather History Date:

Monday, July 22, 2013

  Actual Average Record
Temperature  
Mean Temperature 75 °F -  
Max Temperature 81 °F 83 °F 98 °F (1999)
Min Temperature 69 °F 65 °F 59 °F (2000)
Cooling Degree Days 10    
Growing Degree Days 25 (Base 50)    
Moisture  
Dew Point 71 °F    
Average Humidity 92    
Maximum Humidity 100    
Minimum Humidity 73    
Precipitation  
Precipitation 1.07 in - - ()
Sea Level Pressure  
Sea Level Pressure 29.86 in    
Wind  
Wind Speed 5 mph (SSW)    
Max Wind Speed 15 mph    
Max Gust Speed 20 mph    
Visibility 7 miles    
Events Fog , Rain    
Averages and records for this station are not official NWS values.
T = Trace of Precipitation, MM = Missing Value Source: NWS Daily Summary

Daily Weather History Graph

Daily Weather History Graph

Search for Another Location

Airport or City:

Trip Planner

Search our weather history database for the weather conditions in past years. The results will help you decide how hot, cold, wet, or windy it might be!

Date:

Astronomy

Jul. 22, 2013 Rise Set
Actual Time 6:39 AM EDT 9:01 PM EDT
Civil Twilight 6:09 AM EDT 9:31 PM EDT
Nautical Twilight 5:32 AM EDT 10:07 PM EDT
Astronomical Twilight 4:51 AM EDT 10:48 PM EDT
Moon 8:48 PM EDT (7/22) 6:33 AM EDT (7/22)
Length of Visible Light 15h 22m
Length of Day
14h 22m
Full, 100% of the Moon is Illuminated
Jul 22
Full
Jul 22
Full
Jul 29
Last Quarter
Aug 6
New
Aug 14
First Quarter

Hourly Weather History & Observations

Time (EDT) Temp. Heat Index Dew Point Humidity Pressure Visibility Wind Dir Wind Speed Gust Speed Precip Events Conditions
12:10 AM 73.4 °F - 69.8 °F 88% 29.94 in 10.0 mi SW 3.5 mph - N/A   Partly Cloudy
12:58 AM 71.8 °F - 69.8 °F 93% 29.93 in 10.0 mi South 4.6 mph - 0.00 in   Scattered Clouds
1:28 AM 71.6 °F - 69.8 °F 94% 29.92 in 10.0 mi South 3.5 mph - N/A Rain Light Rain
1:38 AM 71.6 °F - 69.8 °F 94% 29.91 in 10.0 mi SE 3.5 mph - N/A   Partly Cloudy
1:58 AM 71.1 °F - 69.6 °F 95% 29.89 in 10.0 mi South 5.8 mph - 0.00 in   Clear
2:58 AM 70.2 °F - 69.1 °F 96% 29.88 in 10.0 mi South 5.8 mph - N/A   Mostly Cloudy
3:58 AM 70.2 °F - 69.1 °F 96% 29.87 in 8.0 mi SSW 4.6 mph - N/A   Mostly Cloudy
3:59 AM 69.8 °F - 69.8 °F 100% 29.88 in 8.0 mi South 3.5 mph - N/A Rain Light Rain
4:08 AM 69.8 °F - 69.8 °F 100% 29.88 in 10.0 mi SW 3.5 mph - N/A   Mostly Cloudy
4:20 AM 69.8 °F - 69.8 °F 100% 29.88 in 10.0 mi SSW 2.3 mph - N/A Rain Light Rain
4:34 AM 69.8 °F - 69.8 °F 100% 29.87 in 8.0 mi SSE 4.6 mph - N/A   Mostly Cloudy
4:58 AM 70.3 °F - 69.8 °F 98% 29.85 in 10.0 mi South 2.3 mph - 0.06 in   Scattered Clouds
5:28 AM 69.8 °F - 69.8 °F 100% 29.86 in 10.0 mi SSE 3.5 mph - N/A   Mostly Cloudy
5:38 AM 71.6 °F - 69.8 °F 94% 29.85 in 10.0 mi ESE 3.5 mph - N/A   Mostly Cloudy
5:58 AM 71.1 °F - 70.2 °F 97% 29.85 in 10.0 mi SE 4.6 mph - N/A   Overcast
6:17 AM 71.6 °F - 69.8 °F 94% 29.86 in 10.0 mi SSE 6.9 mph - N/A Rain Light Rain
6:58 AM 71.6 °F - 69.8 °F 94% 29.85 in 3.0 mi South 5.8 mph - 0.09 in Rain Heavy Rain
7:05 AM 71.6 °F - 69.8 °F 94% 29.86 in 1.2 mi SW 2.3 mph - N/A Rain Light Rain
7:08 AM 71.6 °F - 69.8 °F 94% 29.87 in 1.2 mi WSW 3.5 mph - N/A Rain Light Rain
7:13 AM 71.6 °F - 69.8 °F 94% 29.87 in 0.8 mi SW 4.6 mph - N/A Rain Light Rain
7:18 AM 71.6 °F - 69.8 °F 94% 29.87 in 1.2 mi West 4.6 mph - N/A Rain Heavy Rain
7:25 AM 71.6 °F - 69.8 °F 94% 29.87 in 0.8 mi SSW 3.5 mph - N/A Rain Rain
7:30 AM 71.6 °F - 69.8 °F 94% 29.87 in 0.5 mi SSW 5.8 mph - N/A Rain Rain
7:35 AM 71.6 °F - 69.8 °F 94% 29.88 in 0.5 mi SSW 6.9 mph - N/A Rain Heavy Rain
7:40 AM 71.6 °F - 69.8 °F 94% 29.88 in 0.5 mi Variable 6.9 mph - N/A Fog , Rain Heavy Rain
7:45 AM 69.8 °F - 69.8 °F 100% 29.87 in 0.5 mi SSW 8.1 mph - N/A Fog , Rain Heavy Rain
7:50 AM 69.8 °F - 69.8 °F 100% 29.87 in 1.5 mi SW 4.6 mph - N/A Rain Light Rain
7:55 AM 69.8 °F - 69.8 °F 100% 29.87 in 2.5 mi SW 5.8 mph - N/A Rain Light Rain
7:58 AM 70.3 °F - 70.0 °F 99% 29.86 in 3.0 mi SW 4.6 mph - 0.48 in Rain Light Rain
8:06 AM 69.8 °F - 69.8 °F 100% 29.87 in 2.0 mi SSW 4.6 mph - N/A Rain Light Rain
8:08 AM 69.8 °F - 69.8 °F 100% 29.87 in 2.0 mi SSW 5.8 mph - N/A Rain Rain
8:13 AM 71.6 °F - 69.8 °F 94% 29.87 in 2.0 mi SSW 4.6 mph - N/A Rain Light Rain
8:18 AM 71.6 °F - 69.8 °F 94% 29.87 in 2.0 mi South 6.9 mph - N/A Rain Light Rain
8:23 AM 71.6 °F - 69.8 °F 94% 29.87 in 1.5 mi South 5.8 mph - N/A Rain Light Rain
8:28 AM 71.6 °F - 69.8 °F 94% 29.87 in 4.0 mi South 5.8 mph - N/A Rain Light Rain
8:33 AM 71.6 °F - 69.8 °F 94% 29.87 in 0.8 mi SSW 5.8 mph - N/A Rain Rain
8:38 AM 71.6 °F - 69.8 °F 94% 29.88 in 1.0 mi South 5.8 mph - N/A Rain Heavy Rain
8:43 AM 71.6 °F - 69.8 °F 94% 29.88 in 0.8 mi South 4.6 mph - N/A Rain Heavy Rain
8:48 AM 71.6 °F - 69.8 °F 94% 29.88 in 1.0 mi SSW 2.3 mph - N/A Rain Rain
8:58 AM 70.7 °F - 70.7 °F 100% 29.87 in 1.5 mi West 4.6 mph - 0.38 in Rain Rain
9:23 AM 71.6 °F - 69.8 °F 94% 29.88 in 10.0 mi SW 1.2 mph - N/A   Overcast
9:58 AM 71.4 °F - 71.1 °F 99% 29.87 in 10.0 mi SSE 3.5 mph - 0.05 in   Overcast
10:00 AM 71.6 °F - 71.6 °F 100% 29.87 in 8.0 mi SSE 5.8 mph - N/A   Light Drizzle
10:05 AM 71.6 °F - 71.6 °F 100% 29.87 in 7.0 mi SE 5.8 mph - N/A Rain Light Rain
10:10 AM 71.6 °F - 71.6 °F 100% 29.87 in 8.0 mi SE 2.3 mph - N/A Rain Light Rain
10:20 AM 71.6 °F - 71.6 °F 100% 29.86 in 5.0 mi SE 3.5 mph - N/A   Overcast
10:57 AM 73.4 °F - 71.6 °F 94% 29.86 in 10.0 mi South 4.6 mph - N/A   Overcast
10:58 AM 72.9 °F - 72.3 °F 98% 29.85 in 10.0 mi South 4.6 mph - 0.01 in   Overcast
11:27 AM 73.4 °F - 71.6 °F 94% 29.86 in 10.0 mi South 6.9 mph - N/A   Overcast
11:58 AM 75.9 °F - 71.6 °F 86% 29.85 in 10.0 mi South 6.9 mph - N/A   Overcast
12:18 PM 75.2 °F - 71.6 °F 89% 29.86 in 10.0 mi SSW 6.9 mph - N/A   Mostly Cloudy
12:28 PM 77.0 °F - 71.6 °F 83% 29.86 in 10.0 mi South 6.9 mph - N/A   Overcast
12:58 PM 76.5 °F - 71.4 °F 84% 29.84 in 10.0 mi South 6.9 mph - N/A   Overcast
1:03 PM 77.0 °F - 71.6 °F 83% 29.85 in 4.0 mi South 5.8 mph - N/A Rain Light Rain
1:10 PM 75.2 °F - 71.6 °F 89% 29.85 in 10.0 mi SW 6.9 mph - N/A   Overcast
1:30 PM 75.2 °F - 71.6 °F 89% 29.85 in 2.0 mi SW 9.2 mph - N/A Rain Light Rain
1:35 PM 75.2 °F - 71.6 °F 89% 29.85 in 3.0 mi SW 10.4 mph - N/A Rain Light Rain
1:40 PM 73.4 °F - 71.6 °F 94% 29.85 in 7.0 mi WSW 10.4 mph - N/A   Overcast
1:53 PM 75.2 °F - 71.6 °F 89% 29.85 in 10.0 mi WSW 8.1 mph - N/A   Overcast
1:58 PM 74.7 °F - 72.1 °F 92% 29.84 in 10.0 mi WSW 8.1 mph - 0.00 in   Overcast
2:03 PM 75.2 °F - 73.4 °F 94% 29.84 in 10.0 mi WSW 6.9 mph - N/A   Mostly Cloudy
2:37 PM 78.8 °F - 71.6 °F 78% 29.83 in 10.0 mi WSW 12.7 mph 18.4 mph N/A   Overcast
2:43 PM 78.8 °F - 71.6 °F 78% 29.83 in 5.0 mi WSW 15.0 mph 19.6 mph N/A Rain Light Rain
2:58 PM 77.7 °F - 72.7 °F 84% 29.82 in 10.0 mi West 9.2 mph - 0.00 in   Mostly Cloudy
2:59 PM 78.8 °F - 73.4 °F 83% 29.83 in 10.0 mi WSW 9.2 mph - N/A Rain Light Rain
3:11 PM 78.8 °F - 73.4 °F 83% 29.83 in 10.0 mi West 9.2 mph - N/A   Mostly Cloudy
3:58 PM 80.6 °F 84.6 °F 71.6 °F 74% 29.82 in 10.0 mi West 9.2 mph - N/A   Mostly Cloudy
4:10 PM 80.6 °F 84.6 °F 71.6 °F 74% 29.83 in 10.0 mi WSW 9.2 mph - N/A   Mostly Cloudy
4:15 PM 80.6 °F 84.6 °F 71.6 °F 74% 29.83 in 10.0 mi West 11.5 mph - N/A   Scattered Clouds
4:58 PM 80.1 °F 83.6 °F 71.1 °F 74% 29.81 in 10.0 mi West 12.7 mph - N/A   Mostly Cloudy
5:58 PM 79.0 °F - 69.8 °F 73% 29.80 in 10.0 mi Variable 5.8 mph - N/A   Scattered Clouds
6:58 PM 81.3 °F 85.9 °F 72.1 °F 74% 29.80 in 10.0 mi West 6.9 mph - N/A   Scattered Clouds
7:58 PM 79.2 °F - 71.4 °F 77% 29.81 in 10.0 mi West 8.1 mph - N/A   Clear
8:58 PM 76.8 °F - 71.2 °F 83% 29.81 in 9.0 mi West 4.6 mph - N/A   Clear
9:47 PM 73.4 °F - 71.6 °F 94% 29.83 in 10.0 mi Calm Calm - N/A Rain Light Rain
9:58 PM 73.2 °F - 71.4 °F 94% 29.83 in 6.0 mi WNW 1.2 mph - 0.00 in Rain Light Rain
10:02 PM 73.4 °F - 71.6 °F 94% 29.84 in 5.0 mi WSW 2.3 mph - N/A   Clear
10:58 PM 71.6 °F - 69.6 °F 93% 29.85 in 10.0 mi Variable 4.6 mph - 0.00 in   Clear
11:17 PM 71.6 °F - 69.8 °F 94% 29.86 in 9.0 mi SSW 2.3 mph - N/A Rain Light Rain
11:27 PM 71.6 °F - 69.8 °F 94% 29.86 in 10.0 mi SW 2.3 mph - N/A   Clear
11:58 PM 70.5 °F - 69.1 °F 95% 29.86 in 10.0 mi WSW 2.3 mph - 0.00 in   Clear